Wind_Speed
13 13 13 12 11 11 10 10 9 9 8 7 7 7 7 8 8 7 6 6 5 5 6 6 5 5 4 3 3 2 1 2 2 1 1 1 1 1 1 1 2 2 3
15 15 14 14 13 12 12 11 11 10 10 9 9 8 9 9 9 9 8 8 7 7 7 8 7 7 6 5 4 4 3 3 3 3 3 3 3 2 2 2 3 4 4
16 16 16 15 15 14 13 13 13 12 11 11 11 10 10 10 11 10 10 10 9 9 9 9 9 9 8 7 6 6 5 5 5 4 4 5 4 4 4 4 4 4 5
17 17 17 17 17 16 15 15 14 13 13 13 12 12 12 12 12 12 12 11 11 11 10 10 10 10 10 9 8 8 7 6 6 5 5 5 5 5 5 5 6 6 6
18 18 18 18 18 18 17 16 15 14 14 13 13 13 13 14 14 14 14 14 13 13 12 12 11 11 11 11 11 10 9 8 8 8 7 7 7 7 7 7 7 7 7
19 19 18 18 18 18 18 17 17 16 15 15 14 14 15 15 15 16 16 16 16 15 14 14 14 13 13 13 12 12 11 10 10 10 10 9 9 9 9 9 9 9 9
20 20 20 19 19 19 19 19 18 18 17 17 16 16 16 16 17 17 17 17 17 17 17 16 16 15 15 15 14 13 12 12 12 12 12 12 11 11 11 11 11 11 11
22 21 21 21 21 21 20 19 19 19 19 18 18 18 18 18 18 18 18 18 18 18 18 18 18 17 17 16 16 15 14 14 14 14 14 14 14 14 13 13 13 13 13
23 23 22 22 22 22 22 21 20 20 20 19 19 20 20 20 20 20 19 19 19 19 19 19 19 19 19 18 18 17 16 16 16 16 16 16 16 15 15 15 15 15 15
25 24 23 22 22 22 22 22 22 21 21 21 21 21 21 21 21 21 21 21 21 21 21 21 21 21 21 20 20 20 19 18 17 17 17 17 17 17 17 17 17 17 18
25 25 24 24 23 23 23 24 23 23 23 23 23 23 23 23 23 23 23 23 23 22 23 23 23 22 22 22 21 21 20 20 20 19 19 19 19 19 19 19 19 19 20
26 25 25 25 25 25 25 25 25 25 25 25 25 25 24 24 25 25 25 25 25 24 25 25 25 24 24 24 23 23 23 22 21 21 21 21 21 21 21 21 21 21 21
26 26 26 26 26 26 26 26 26 26 26 26 26 26 26 26 26 27 27 27 27 27 26 26 26 26 26 26 26 25 25 24 23 23 23 23 23 23 23 23 23 23 23
28 27 27 27 27 27 28 27 27 28 28 28 28 28 28 28 28 28 28 29 28 28 28 28 28 28 28 28 28 27 27 26 25 25 25 25 25 25 25 25 25 25 25
29 29 29 28 28 28 29 29 28 29 29 30 30 30 29 29 30 29 30 30 30 31 31 30 30 30 30 30 30 30 30 29 28 28 27 27 28 28 27 27 27 27 27
31 31 31 31 30 30 30 31 31 30 30 31 31 31 31 31 31 31 31 32 32 33 33 32 33 32 32 32 32 32 32 31 30 30 30 30 30 30 29 29 29 29 29
33 33 33 32 32 32 32 32 32 32 32 32 32 33 33 32 32 33 33 33 34 34 34 34 34 34 34 34 34 33 33 32 32 32 32 32 32 32 31 31 31 31 30
34 35 34 34 34 33 34 34 34 34 34 34 34 34 34 34 34 34 34 35 35 35 35 35 35 35 35 35 35 35 35 35 34 34 34 34 34 34 34 33 33 32 32
35 35 35 35 34 34 34 35 35 35 35 36 36 35 35 35 35 35 34 35 35 35 34 35 35 36 36 36 36 36 36 36 35 36 36 35 35 35 35 35 34 34 34
36 36 36 35 35 35 34 34 35 35 35 36 36 36 35 36 36 35 35 35 35 35 35 36 36 37 37 38 37 37 37 36 36 37 37 36 35 36 36 36 36 36 36
37 37 37 36 35 36 36 35 36 36 36 37 37 37 37 37 37 37 37 37 36 36 36 37 38 38 38 39 39 38 38 37 37 37 37 36 36 37 37 37 37 37 37
37 37 37 37 36 36 36 37 38 38 38 38 39 38 38 38 38 38 38 37 37 37 37 38 39 39 39 40 40 39 39 38 38 37 38 38 38 38 38 38 38 38 38
39 38 38 38 38 38 38 39 39 40 40 39 39 40 39 39 39 39 38 38 38 38 38 38 38 39 40 40 41 41 40 39 38 38 39 40 40 40 40 40 39 39 40
39 39 40 40 40 40 40 41 41 41 41 40 40 41 40 40 39 39 39 39 40 40 39 38 38 38 39 40 41 42 42 41 41 40 40 40 42 42 42 42 41 41 41
39 40 41 41 41 42 42 42 42 42 42 42 42 42 42 41 40 39 39 40 40 40 40 39 39 40 40 40 41 42 42 43 43 42 42 41 42 43 43 43 43 42 43
39 40 41 42 43 43 44 44 44 43 43 43 43 43 42 41 40 40 40 40 40 40 40 40 40 40 41 41 42 42 43 44 44 44 43 42 43 43 43 43 43 43 44
Wind_Direction
246 246 246 247 246 243 242 242 241 239 237 233 232 233 229 226 226 231 235 236 239 241 238 235 233 231 230 237 245 246 246 251 257 260 275 264 237 142 175 210 224 235 250
247 246 246 246 247 244 242 243 243 240 239 240 240 240 238 234 233 238 244 246 247 247 247 245 242 239 239 241 246 254 259 258 260 267 271 256 247 249 254 251 248 253 255
248 247 247 248 248 246 243 243 244 243 242 243 245 246 245 242 241 243 247 250 251 250 250 251 246 243 244 248 251 259 262 259 257 263 265 261 258 260 260 257 259 265 259
247 246 247 248 247 245 243 243 245 246 245 245 246 248 248 247 246 247 249 252 254 254 254 252 250 249 249 252 253 258 259 259 259 261 264 268 266 274 269 267 262 264 265
248 248 247 248 246 245 243 243 244 247 247 248 250 252 252 252 251 251 251 252 254 254 254 254 253 252 253 254 256 258 258 259 260 260 261 263 268 271 272 272 267 268 269
248 248 247 247 246 245 244 244 245 248 251 251 253 254 256 255 254 255 254 253 254 253 253 253 253 253 256 257 258 258 258 259 261 261 262 265 267 272 277 277 276 269 269
248 247 247 248 246 246 246 246 246 248 250 252 253 256 258 260 258 257 256 255 254 254 253 252 253 254 256 257 258 259 260 262 264 264 265 267 268 271 274 275 277 276 277
248 247 248 248 247 246 247 248 248 250 251 253 256 259 260 262 261 260 258 256 254 254 253 253 253 254 255 257 257 258 261 263 264 265 267 269 270 271 272 273 274 276 276
247 247 246 248 248 247 247 248 249 250 252 255 258 261 261 262 261 259 258 257 255 254 253 253 253 253 256 258 259 259 260 262 263 265 267 269 270 270 271 272 273 275 275
248 248 246 247 248 248 248 249 249 251 253 256 259 261 262 263 261 259 260 259 257 256 255 254 254 254 256 258 259 260 261 262 263 265 267 269 270 271 271 272 274 275 275
248 248 248 247 248 247 248 250 252 253 254 257 259 262 263 262 261 260 260 260 258 257 256 255 255 255 256 258 259 260 261 262 264 266 267 269 270 271 272 273 274 275 274
249 250 250 248 248 248 249 251 253 254 256 259 261 263 264 263 261 261 261 261 260 258 257 256 255 256 257 258 259 260 261 263 264 266 267 268 269 269 271 273 275 275 274
250 250 250 249 250 250 251 252 254 256 258 260 263 264 265 264 263 262 262 261 260 259 258 257 256 257 257 258 260 260 262 263 264 266 267 268 269 270 271 274 275 275 275
251 251 251 251 252 253 254 254 256 257 258 260 263 265 265 264 264 263 263 262 261 259 258 256 255 256 256 257 259 260 262 263 265 266 267 268 270 271 272 274 275 275 275
251 251 252 252 254 255 256 256 257 258 258 261 263 266 266 265 265 264 264 263 262 261 259 257 256 256 256 257 258 260 262 263 265 267 268 269 270 271 272 273 274 275 275
252 252 252 253 254 255 256 256 257 258 260 262 264 266 266 266 266 265 264 264 263 262 260 258 257 257 257 258 259 260 262 263 265 266 267 269 270 271 272 273 274 273 274
253 253 254 255 255 256 257 258 258 260 262 263 265 265 265 266 266 265 264 264 263 262 260 258 257 258 258 258 259 260 262 263 264 266 268 269 270 271 272 273 274 274 274
253 254 255 256 256 256 257 259 260 261 262 263 265 265 265 266 266 265 265 264 262 261 260 259 258 259 259 259 260 261 262 263 265 266 268 269 270 271 271 272 273 273 274
254 255 256 256 256 257 258 259 260 261 263 264 265 266 266 266 266 266 265 263 262 260 259 259 258 259 260 260 260 261 262 264 265 266 268 269 271 271 270 271 271 272 273
254 255 255 255 256 257 258 259 260 262 264 265 266 267 267 267 266 265 264 263 261 260 259 259 259 260 260 260 261 263 263 265 266 267 267 269 270 270 270 270 270 271 273
254 255 255 256 256 258 259 260 261 262 264 266 267 268 268 267 266 264 263 262 262 261 260 260 260 261 261 261 262 264 264 265 267 267 267 267 268 269 269 269 270 271 272
254 254 254 255 256 257 259 262 263 263 264 266 267 267 268 267 265 263 262 261 262 262 261 262 262 261 261 262 263 263 264 265 266 267 268 268 268 270 270 270 270 271 273
254 255 255 256 257 257 258 261 262 263 265 267 267 267 267 267 265 262 260 260 261 262 262 263 263 262 262 262 263 263 263 264 266 267 269 269 269 270 270 270 271 271 272
255 255 256 257 258 259 259 260 261 263 265 266 266 266 266 266 265 262 261 261 261 261 261 262 263 264 263 263 263 263 263 264 266 267 269 270 271 270 270 271 271 272 272
256 256 257 258 259 260 260 261 262 263 265 266 266 266 265 266 265 263 262 262 261 261 261 262 263 264 264 264 264 264 263 265 266 267 268 270 271 271 270 270 271 272 273
258 259 259 260 260 261 262 262 263 264 265 266 265 266 265 264 264 263 263 263 262 262 263 262 263 264 264 265 266 265 265 266 268 269 270 270 270 271 271 270 271 273 274
Height
5839 5840 5841 5842 5842 5843 5844 5845 5845 5846 5846 5847 5848 5848 5849 5850 5850 5851 5852 5852 5853 5853 5854 5854 5855 5855 5855 5856 5856 5856 5857 5857 5857 5857 5857 5857 5857 5857 5857 5858 5859 5860 5860
5837 5838 5839 5840 5841 5842 5842 5843 5844 5845 5845 5846 5847 5848 5848 5849 5849 5850 5851 5851 5852 5852 5853 5853 5854 5854 5855 5855 5855 5856 5856 5856 5856 5857 5857 5857 5857 5857 5857 5858 5858 5859 5859
5834 5835 5836 5838 5839 5840 5840 5841 5842 5843 5844 5845 5845 5846 5847 5847 5848 5849 5849 5850 5851 5851 5851 5852 5853 5853 5853 5854 5854 5855 5855 5855 5856 5856 5857 5857 5857 5857 5857 5857 5858 5858 5858
5831 5832 5833 5835 5836 5837 5838 5839 5840 5841 5842 5843 5843 5844 5845 5845 5846 5847 5847 5848 5849 5849 5850 5850 5851 5851 5852 5852 5853 5854 5854 5854 5855 5855 5856 5856 5856 5856 5856 5856 5857 5857 5857
5828 5829 5830 5832 5833 5834 5835 5836 5838 5839 5839 5840 5841 5842 5843 5843 5844 5844 5845 5846 5846 5847 5848 5848 5849 5850 5850 5851 5851 5852 5852 5853 5853 5854 5854 5855 5855 5855 5855 5855 5855 5856 5856
5824 5825 5827 5828 5830 5831 5832 5834 5835 5836 5837 5838 5838 5839 5840 5840 5841 5841 5842 5843 5844 5844 5845 5846 5847 5848 5848 5849 5849 5850 5850 5851 5851 5852 5852 5853 5853 5853 5853 5854 5854 5854 5854
5820 5822 5823 5825 5826 5828 5829 5830 5832 5833 5834 5835 5835 5836 5837 5837 5838 5838 5838 5839 5840 5841 5842 5843 5844 5845 5846 5846 5847 5848 5848 5849 5849 5850 5850 5851 5851 5851 5851 5851 5852 5852 5852
5816 5818 5819 5821 5822 5824 5825 5827 5828 5829 5830 5831 5832 5833 5833 5833 5834 5834 5834 5835 5836 5837 5838 5840 5841 5842 5843 5843 5844 5845 5846 5846 5847 5847 5848 5848 5848 5849 5849 5849 5849 5849 5850
5811 5813 5815 5816 5818 5820 5821 5823 5824 5825 5826 5827 5828 5829 5829 5829 5830 5830 5831 5831 5832 5833 5834 5836 5837 5838 5839 5840 5841 5842 5843 5844 5844 5845 5845 5845 5846 5846 5846 5846 5846 5846 5847
5807 5808 5810 5812 5814 5815 5817 5818 5820 5821 5822 5823 5824 5824 5825 5825 5825 5826 5827 5827 5828 5829 5830 5831 5833 5834 5835 5836 5837 5838 5839 5840 5841 5842 5842 5842 5842 5842 5843 5843 5843 5843 5843
5802 5804 5806 5807 5809 5811 5812 5814 5815 5817 5818 5818 5819 5819 5820 5820 5821 5821 5822 5823 5824 5825 5826 5827 5828 5830 5831 5832 5833 5834 5836 5836 5837 5838 5838 5839 5839 5839 5839 5839 5839 5839 5839
5797 5799 5801 5802 5804 5806 5807 5809 5810 5811 5812 5813 5814 5814 5815 5815 5816 5817 5817 5818 5819 5820 5821 5822 5823 5825 5826 5827 5829 5830 5831 5832 5833 5834 5834 5834 5835 5835 5835 5835 5835 5835 5835
5792 5794 5795 5797 5799 5801 5802 5804 5805 5806 5807 5808 5809 5809 5809 5810 5810 5811 5812 5812 5813 5814 5815 5817 5818 5820 5821 5823 5824 5825 5826 5827 5828 5829 5830 5830 5830 5830 5830 5830 5830 5830 5830
5787 5788 5790 5792 5793 5795 5797 5798 5799 5800 5801 5802 5803 5803 5803 5804 5804 5805 5806 5806 5807 5808 5809 5811 5812 5814 5815 5817 5818 5819 5821 5822 5823 5823 5824 5825 5825 5825 5825 5825 5825 5825 5825
5781 5783 5784 5786 5788 5789 5790 5792 5793 5794 5795 5796 5796 5796 5797 5797 5798 5798 5799 5800 5801 5802 5803 5805 5806 5808 5809 5811 5812 5813 5815 5816 5817 5817 5818 5819 5819 5819 5819 5819 5819 5819 5819
5774 5776 5778 5780 5781 5782 5784 5785 5787 5788 5788 5789 5789 5789 5790 5790 5791 5791 5792 5793 5794 5795 5796 5798 5799 5801 5803 5804 5806 5807 5808 5809 5810 5811 5812 5812 5813 5813 5813 5813 5813 5813 5813
5767 5769 5771 5772 5774 5776 5777 5778 5779 5780 5781 5782 5782 5782 5783 5783 5783 5784 5785 5785 5786 5787 5788 5790 5792 5794 5796 5797 5798 5800 5801 5802 5803 5804 5805 5805 5806 5806 5806 5806 5806 5806 5806
5760 5761 5763 5765 5767 5768 5770 5771 5772 5773 5773 5774 5774 5775 5775 5775 5776 5776 5777 5778 5778 5779 5781 5783 5785 5787 5788 5790 5791 5792 5793 5794 5795 5796 5797 5797 5798 5798 5799 5799 5798 5798 5798
5751 5753 5755 5757 5759 5760 5762 5763 5764 5765 5766 5766 5766 5766 5767 5767 5768 5768 5769 5770 5770 5772 5773 5775 5777 5778 5780 5782 5783 5784 5786 5787 5787 5788 5789 5789 5790 5790 5790 5791 5791 5791 5790
5743 5745 5747 5749 5750 5752 5753 5754 5755 5756 5757 5757 5758 5758 5758 5758 5759 5760 5761 5761 5762 5764 5765 5767 5769 5770 5772 5773 5775 5776 5778 5779 5779 5780 5780 5780 5781 5781 5782 5782 5782 5782 5782
5734 5736 5738 5740 5741 5743 5745 5746 5747 5748 5748 5749 5749 5749 5749 5749 5750 5751 5752 5753 5754 5756 5757 5759 5760 5762 5763 5765 5766 5768 5769 5770 5771 5771 5771 5772 5772 5772 5772 5773 5773 5773 5773
5724 5726 5728 5730 5732 5734 5735 5737 5738 5739 5739 5740 5740 5739 5740 5740 5740 5741 5743 5744 5746 5747 5749 5750 5752 5753 5754 5756 5757 5758 5760 5762 5762 5762 5762 5763 5763 5763 5763 5763 5764 5764 5764
5715 5717 5719 5721 5722 5724 5725 5727 5728 5728 5729 5730 5730 5730 5730 5730 5731 5732 5733 5735 5737 5738 5740 5741 5742 5744 5745 5746 5747 5749 5750 5752 5753 5753 5753 5753 5753 5754 5754 5754 5754 5755 5755
5705 5707 5709 5711 5713 5714 5715 5716 5717 5718 5719 5720 5720 5720 5720 5721 5721 5722 5724 5725 5727 5729 5730 5732 5733 5735 5736 5737 5738 5739 5741 5742 5743 5744 5744 5744 5744 5744 5744 5744 5744 5745 5744
5696 5698 5700 5701 5702 5704 5705 5706 5707 5707 5708 5709 5709 5709 5710 5711 5711 5712 5714 5716 5717 5719 5721 5722 5724 5725 5726 5727 5728 5729 5730 5731 5732 5733 5734 5734 5734 5734 5734 5734 5734 5734 5733
5686 5688 5689 5691 5692 5693 5694 5695 5696 5697 5697 5698 5698 5699 5699 5700 5701 5702 5704 5706 5707 5709 5710 5712 5714 5715 5716 5717 5718 5719 5720 5721 5721 5721 5722 5723 5723 5724 5723 5723 5723 5723 5722